Date String (YYYY-MM-DD hh:mm:ss) UTC,Instrument flags,Ambient pressure (hPa),Sample flow (lpm),Bypass flow (lpm),Sample temperature (°C),Ambient temperature (°C),ASC tube jacket temperature (°C),LED temperature (°C),Box temperature (°C),Sample RH (%),Span deviation,Mass concentration (μg/m³),Mass concentration (μg/m³),Mass concentration (μg/m³)
DateTimeUTC,F1_M11,P_M11,Q1_M11,Q2_M11,T1_M11,T2_M11,T3_M11,T4_M11,T5_M11,U1_M11,ZSPAN_M11,X0_M11,X2_M11,X1_M11
2022-01-23 20:00:00,,0825.1,4.99,0.00,25.1,24.5,00.0,34.1,26.9,08.5,0000.0,0004.44,0002.54,0002.18
2022-01-23 20:01:00,,0825.0,5.02,0.00,25.1,24.5,00.0,34.1,26.9,08.8,0000.0,0004.48,0002.50,0002.14
2022-01-23 20:02:00,,0825.0,5.01,0.00,25.1,24.5,00.0,34.1,26.9,08.7,0000.0,0004.43,0002.46,0002.09
2022-01-23 20:03:00,,0825.0,4.99,0.00,25.1,24.5,00.0,34.1,26.9,08.4,0000.0,0004.49,0002.39,0002.03
2022-01-23 20:04:00,,0824.9,5.00,0.00,25.1,24.5,00.0,34.1,26.9,08.5,0000.0,0003.73,0002.25,0001.98
2022-01-23 20:05:00,,0824.9,5.01,0.00,25.1,24.5,00.0,34.1,26.9,08.6,0000.0,0003.51,0002.21,0001.94
2022-01-23 20:06:00,,0824.9,4.99,0.00,25.1,24.5,00.0,34.1,26.9,08.6,0000.0,0003.45,0002.13,0001.89
2022-01-23 20:07:00,,0824.9,5.00,0.00,25.1,24.5,00.0,34.1,26.9,08.6,0000.0,0003.56,0002.13,0001.86
2022-01-23 20:08:00,,0824.9,5.01,0.00,25.1,24.5,00.0,34.1,26.9,08.5,0000.0,0003.47,0002.11,0001.83
2022-01-23 20:09:00,,0824.9,4.99,0.00,25.1,24.5,00.0,34.1,26.9,08.5,0000.0,0003.54,0002.15,0001.84
2022-01-23 20:10:00,,0824.9,5.01,0.00,25.1,24.5,00.0,34.1,26.9,08.6,0000.0,0003.69,0002.23,0001.88
2022-01-23 20:11:00,,0824.8,5.01,0.00,25.1,24.5,00.0,34.1,26.9,08.7,0000.0,0003.88,0002.31,0001.92
2022-01-23 20:12:00,,0824.7,4.99,0.00,25.1,24.5,00.0,34.1,26.9,08.7,0000.0,0003.97,0002.39,0001.97
2022-01-23 20:13:00,,0824.6,4.99,0.00,25.2,24.5,00.0,34.1,26.9,08.6,0000.0,0004.05,0002.46,0002.03
2022-01-23 20:14:00,,0824.7,5.00,0.00,25.2,24.5,00.0,34.1,27.0,08.8,0000.0,0004.25,0002.59,0002.09
2022-01-23 20:15:00,,0824.6,5.01,0.00,25.2,24.5,00.0,34.1,27.0,08.9,0000.0,0004.33,0002.70,0002.16
2022-01-23 20:16:00,,0824.6,5.00,0.00,25.2,24.6,00.0,34.1,27.0,08.7,0000.0,0004.46,0002.76,0002.22
2022-01-23 20:17:00,,0824.6,5.00,0.00,25.2,24.6,00.0,34.1,27.0,08.7,0000.0,0005.23,0002.88,0002.31
2022-01-23 20:18:00,,0824.7,5.00,0.00,25.2,24.6,00.0,34.1,27.0,08.4,0000.0,0005.90,0002.98,0002.41
2022-01-23 20:19:00,,0824.6,5.00,0.00,25.2,24.6,00.0,34.1,27.0,08.4,0000.0,0006.10,0003.08,0002.50
2022-01-23 20:20:00,,0824.6,5.02,0.00,25.2,24.6,00.0,34.1,27.0,08.6,0000.0,0007.24,0003.16,0002.59
2022-01-23 20:21:00,,0824.6,5.00,0.00,25.2,24.6,00.0,34.2,27.0,08.9,0000.0,0007.96,0003.22,0002.68
2022-01-23 20:22:00,,0824.6,4.98,0.00,25.2,24.6,00.0,34.2,27.0,08.9,0000.0,0008.66,0003.25,0002.74
2022-01-23 20:23:00,,0824.6,4.99,0.00,25.2,24.6,00.0,34.2,27.1,08.9,0000.0,0008.75,0003.29,0002.81
2022-01-23 20:24:00,,0824.5,5.01,0.00,25.2,24.6,00.0,34.2,27.1,08.6,0000.0,0008.87,0003.35,0002.87
2022-01-23 20:25:00,,0824.4,5.00,0.00,25.3,24.6,00.0,34.2,27.1,08.5,0000.0,0008.83,0003.38,0002.97
2022-01-23 20:26:00,,0824.4,4.99,0.00,25.3,24.6,00.0,34.2,27.1,08.5,0000.0,0008.84,0003.42,0003.05
2022-01-23 20:27:00,,0824.4,5.01,0.00,25.3,24.7,00.0,34.2,27.0,08.6,0000.0,0008.86,0003.48,0003.12
2022-01-23 20:28:00,,0824.3,5.01,0.00,25.3,24.7,00.0,34.2,27.1,08.9,0000.0,0008.79,0003.52,0003.17
2022-01-23 20:29:00,,0824.3,4.99,0.00,25.3,24.7,00.0,34.2,27.1,09.1,0000.0,0008.25,0003.54,0003.20
2022-01-23 20:30:00,,0824.3,5.01,0.00,25.3,24.7,00.0,34.2,27.0,08.6,0000.0,0008.22,0003.54,0003.22
2022-01-23 20:31:00,,0824.3,5.01,0.00,25.3,24.6,00.0,34.2,27.0,08.5,0000.0,0008.01,0003.56,0003.24
2022-01-23 20:32:00,,0824.3,4.99,0.00,25.3,24.6,00.0,34.2,27.0,08.4,0000.0,0007.40,0003.55,0003.26
2022-01-23 20:33:00,,0824.3,5.00,0.00,25.3,24.6,00.0,34.2,27.0,08.5,0000.0,0005.96,0003.56,0003.27
2022-01-23 20:34:00,,0824.4,5.01,0.00,25.3,24.6,00.0,34.2,27.0,08.3,0000.0,0005.91,0003.57,0003.29
2022-01-23 20:35:00,,0824.3,4.99,0.00,25.3,24.6,00.0,34.2,27.0,08.2,0000.0,0005.82,0003.57,0003.30
2022-01-23 20:36:00,,0824.3,5.02,0.00,25.3,24.6,00.0,34.2,27.0,08.2,0000.0,0005.81,0003.54,0003.28
2022-01-23 20:37:00,,0824.3,4.99,0.00,25.3,24.7,00.0,34.2,27.1,08.4,0000.0,0005.75,0003.51,0003.25
2022-01-23 20:38:00,,0824.3,4.99,0.00,25.3,24.7,00.0,34.2,27.1,08.3,0000.0,0005.62,0003.46,0003.23
2022-01-23 20:39:00,,0824.3,5.01,0.00,25.3,24.7,00.0,34.2,27.1,08.2,0000.0,0006.17,0003.43,0003.21
2022-01-23 20:40:00,,0824.3,4.99,0.00,25.3,24.7,00.0,34.2,27.1,08.2,0000.0,0006.22,0003.42,0003.19
2022-01-23 20:41:00,,0824.3,5.01,0.00,25.3,24.7,00.0,34.2,27.1,08.3,0000.0,0006.31,0003.44,0003.20
2022-01-23 20:42:00,,0824.3,4.99,0.00,25.3,24.7,00.0,34.2,27.1,08.3,0000.0,0006.38,0003.46,0003.20
2022-01-23 20:43:00,,0824.3,5.00,0.00,25.3,24.7,00.0,34.2,27.1,08.4,0000.0,0006.41,0003.46,0003.20
2022-01-23 20:44:00,,0824.3,5.01,0.00,25.3,24.7,00.0,34.3,27.2,08.6,0000.0,0006.73,0003.45,0003.19
2022-01-23 20:45:00,,0824.3,4.99,0.00,25.4,24.8,00.0,34.3,27.2,08.3,0000.0,0007.84,0003.44,0003.20
2022-01-23 20:46:00,,0824.3,5.00,0.00,25.3,24.8,00.0,34.3,27.2,08.4,0000.0,0007.89,0003.46,0003.22
2022-01-23 20:47:00,,0824.2,5.01,0.00,25.3,24.8,00.0,34.3,27.1,08.4,0000.0,0007.86,0003.49,0003.25
2022-01-23 20:48:00,,0824.3,4.99,0.00,25.4,24.8,00.0,34.3,27.2,08.4,0000.0,0007.90,0003.54,0003.29
2022-01-23 20:49:00,,0824.3,5.00,0.00,25.4,24.8,00.0,34.3,27.2,08.2,0000.0,0008.02,0003.55,0003.31
2022-01-23 20:50:00,,0824.3,5.01,0.00,25.4,24.8,00.0,34.3,27.2,08.3,0000.0,0007.81,0003.55,0003.32
2022-01-23 20:51:00,,0824.2,5.00,0.00,25.4,24.8,00.0,34.3,27.2,08.3,0000.0,0007.81,0003.53,0003.32
2022-01-23 20:52:00,,0824.2,4.99,0.00,25.4,24.8,00.0,34.3,27.2,08.1,0000.0,0007.73,0003.49,0003.30
2022-01-23 20:53:00,,0824.2,5.00,0.00,25.4,24.8,00.0,34.3,27.2,08.1,0000.0,0007.68,0003.47,0003.28
2022-01-23 20:54:00,,0824.2,5.02,0.00,25.4,24.8,00.0,34.3,27.2,08.1,0000.0,0007.68,0003.48,0003.29
2022-01-23 20:55:00,,0824.2,4.98,0.00,25.4,24.8,00.0,34.3,27.2,08.1,0000.0,0007.31,0003.49,0003.30
2022-01-23 20:56:00,,0824.2,4.99,0.00,25.4,24.9,00.0,34.3,27.3,08.1,0000.0,0006.19,0003.50,0003.29
2022-01-23 20:57:00,,0824.1,5.01,0.00,25.4,24.9,00.0,34.3,27.3,08.1,0000.0,0006.00,0003.51,0003.27
2022-01-23 20:58:00,,0824.1,5.01,0.00,25.5,24.9,00.0,34.4,27.3,08.2,0000.0,0006.03,0003.49,0003.25
2022-01-23 20:59:00,,0824.1,4.99,0.00,25.5,24.9,00.0,34.4,27.3,08.3,0000.0,0006.03,0003.47,0003.23
